Location: Bégole
(43.1574°N, 0.3291°E)
Time: 12:01:06
(UTC+00:00)

AQUARIUS - Pass Details

Date: 28 January 2023
Orbit: 647 x 649 km, 98.0° (Epoch: 19 March)

Event Time Altitude Azimuth Distance (km) Brightness Sun altitude
Rises 17:30:03 0° 166° (SSE) 2,953 7.6 -5.0°
Reaches altitude 10° 17:32:15 10° 167° (SSE) 2,048 6.8 -5.4°
Maximum altitude 17:36:43 87° 252° (WSW) 658 4.3 -6.2°
Drops below altitude 10° 17:41:14 10° 346° (NNW) 2,064 6.7 -7.0°
Sets 17:43:27 0° 347° (NNW) 2,979 7.5 -7.3°
